Powrót do katalogu

STARLINK-5051

AktywnyŁącznośćVLEO
NORAD 53916·PAYLOAD·🇺🇸 United States

Wystrzelony Sep 24, 2022 z Cape Canaveral Space Force Station

Loading…

Następne Przeloty (najbliższe 24 godziny)

TLE

ŚwieżeSource: CelesTrak SupGP

Epoka: Sep 14, 2026, 21:11 UTC

1 53916C 22119AG  26257.88312500 -.00025083  00000+0 -80664-3 0  2571
2 53916  53.1580 150.0127 0001327  86.2264 137.5570 15.31713016    12

Śledź STARLINK-5051 w czasie rzeczywistym z AllMySat

Download on the App Store